Regional Weather Roundup
Issued by NWS

Home | Current Version | Previous Version | Graphics & Text | Print | Product List | Glossary On
Versions: 1 2 3 4 5 6 7 8 9 10 11 12 13 14 15 16 17 18 19 20 21 22 23 24 25 26 27 28 29 30 31 32 33 34 35 36 37 38 39 40 41 42 43 44 45 46 47 48 49 50
621
ASUS43 KMKX 281221
RWRWI

WISCONSIN REGIONAL WEATHER ROUNDUP
NATIONAL WEATHER SERVICE MILWAUKEE/SULLIVAN WI
600 AM CST TUE FEB 28 2017

NOTE: "FAIR" INDICATES FEW OR NO CLOUDS BELOW 12,000 FEET WITH NO
SIGNIFICANT WEATHER AND/OR OBSTRUCTIONS TO VISIBILITY.

WIZ001-002-006>008-014>016-023>028-281300-
NORTHWEST WISCONSIN

CITY           SKY/WX    TMP DP  RH WIND       PRES   REMARKS
SUPERIOR ARPT  MIX PCPN  31  31 100 E5        29.82F WCI  27
6HR MIN TEMP:  27; 6HR MAX TEMP:  31;

ASHLAND        CLOUDY    31  26  82 NE6       29.82F WCI  25
6HR MIN TEMP:  24; 6HR MAX TEMP:  29; 6HR PCP: TRACE;

HAYWARD        CLOUDY    34  29  82 CALM      29.79R
6HR MIN TEMP:  33; 6HR MAX TEMP:  38; 6HR PCP: TRACE;

SIREN          CLOUDY    33  26  75 NE5       29.78F WCI  29
6HR MIN TEMP:  33; 6HR MAX TEMP:  36;

CUMBERLAND     CLOUDY    34  30  86 N9        29.76R WCI  26
RICE LAKE      CLOUDY    36  31  82 CALM      29.77S
6HR MIN TEMP:  34; 6HR MAX TEMP:  37;

CHETEK         CLOUDY    35  31  85 CALM      29.76S
6HR MIN TEMP:  29; 6HR MAX TEMP:  36;

LADYSMITH      CLOUDY    36  31  83 E5        29.78S WCI  32
6HR MIN TEMP:  31; 6HR MAX TEMP:  36;

EAU CLAIRE     CLOUDY    37  31  78 NE6       29.73F WCI  32
6HR MIN TEMP:  31; 6HR MAX TEMP:  37;

MENOMONIE      CLOUDY    35  32  89 NE5       29.73F WCI  30
6HR MIN TEMP:  31; 6HR MAX TEMP:  36;

NEW RICHMOND   CLOUDY    35  30  83 N10       29.75R WCI  27
6HR MIN TEMP:  34; 6HR MAX TEMP:  37;

OSCEOLA        CLOUDY    37  30  77 N5        29.79S WCI  33
6HR MIN TEMP:  35; 6HR MAX TEMP:  38;

$$

WIZ003>005-009-010-017-018-281300-
NORTH CENTRAL WISCONSIN

CITY           SKY/WX    TMP DP  RH WIND       PRES   REMARKS
MANITOWISH WTR CLOUDY    32  30  93 CALM      29.79F
6HR MIN TEMP:  30; 6HR MAX TEMP:  32;

ARBOR VITAE    CLOUDY    32  29  89 E5          N/A  WCI  28
6HR MIN TEMP:  32; 6HR MAX TEMP:  34;

WOODRUFF       CLOUDY    32  29  89 E5          N/A  WCI  28
6HR MIN TEMP:  32; 6HR MAX TEMP:  34;

RHINELANDER    CLOUDY    35  31  85 SE5       29.80F WCI  31
6HR MIN TEMP:  30; 6HR MAX TEMP:  36;

EAGLE RIVER    CLOUDY    31  28  87 CALM      29.80F
6HR MIN TEMP:  28; 6HR MAX TEMP:  32;

LAND O LAKES   CLOUDY    35  30  84 CALM      29.82S
6HR MIN TEMP:  32; 6HR MAX TEMP:  35;

PHILLIPS       CLOUDY    32  29  91 E3        29.76F
6HR MIN TEMP:  28; 6HR MAX TEMP:  35;

TOMAHAWK       CLOUDY    33  29  88 CALM      29.79F
6HR MIN TEMP:  29; 6HR MAX TEMP:  33;

MEDFORD        CLOUDY    35  32  88 E3        29.77F
6HR MIN TEMP:  33; 6HR MAX TEMP:  35;

MERRILL        NOT AVBL
$$

WIZ029-030-035-036-043>047-281300-
CENTRAL WISCONSIN

CITY           SKY/WX    TMP DP  RH WIND       PRES   REMARKS
WAUSAU         CLOUDY    34  32  92 E7        29.78F FOG     WCI  28
6HR MIN TEMP:  32; 6HR MAX TEMP:  34;

MOSINEE        CLOUDY    34  34 100 SE5       29.81S FOG     WCI  30
MARSHFIELD     CLOUDY    36  33  89 E7        29.76F WCI  30
6HR MIN TEMP:  34; 6HR MAX TEMP:  38;

STEVENS POINT  CLOUDY    36  36 100 SE5       29.80F FOG     WCI  32
6HR MIN TEMP:  32; 6HR MAX TEMP:  36;

WAUPACA        DRIZZLE   38  36  94 N3        29.82F
6HR MIN TEMP:  33; 6HR MAX TEMP:  39;

WAUTOMA        LGT RAIN  37  37 100 NE3       29.80F FOG
6HR MIN TEMP:  31; 6HR MAX TEMP:  38; 6HR PCP:  0.04;

WISC RAPIDS    LGT RAIN  38  38 100 E6        29.78F FOG     WCI  33
6HR MIN TEMP:  36; 6HR MAX TEMP:  39; 6HR PCP:  0.04;

CAMP DOUGLAS   CLOUDY    37  36  93 E5        29.76F FOG     WCI  34
                                      6HR PCP:  0.03;

$$

WIZ011>013-019>022-031-037>040-048>050-281300-
NORTHEAST WISCONSIN

CITY           SKY/WX    TMP DP  RH WIND       PRES   REMARKS
ANTIGO         CLOUDY    33  32  98 SE5       29.81F FOG     WCI  28
6HR MIN TEMP:  30; 6HR MAX TEMP:  33;

SHAWANO        RAIN      36  34  92 CALM      29.84F
6HR MIN TEMP:  32; 6HR MAX TEMP:  40; 6HR PCP:  0.02;

OCONTO         CLOUDY    37  36  96 CALM      29.86F
6HR MIN TEMP:  29; 6HR MAX TEMP:  37;

STURGEON BAY   LGT RAIN  39  37  92 S12G20    29.86F WCI  32
6HR MIN TEMP:  35; 6HR MAX TEMP:  40;

GREEN BAY      LGT RAIN  39  39 100 SE10      29.85F FOG     WCI  32
6HR MIN TEMP:  33; 6HR MAX TEMP:  39; 6HR PCP:  0.08;

MANITOWOC      RAIN      38  37  97 SE7       29.88F FOG     WCI  33
6HR MIN TEMP:  33; 6HR MAX TEMP:  39; 6HR PCP:  0.05;

APPLETON       LGT RAIN  36  36 100 SE7       29.82F WCI  30
CLINTONVILLE   LGT RAIN  36  34  93 NW3       29.84S
OSHKOSH        CLOUDY    38  36  92 SE9       29.82F FOG     WCI  31
6HR MIN TEMP:  35; 6HR MAX TEMP:  39; 6HR PCP:  0.15;

$$

WIZ032>034-041-042-053>061-281300-
SOUTHWEST WISCONSIN

CITY           SKY/WX    TMP DP  RH WIND       PRES   REMARKS
LA CROSSE      MOCLDY    42  37  82 SE7       29.74F
6HR MIN TEMP:  38; 6HR MAX TEMP:  44; 6HR PCP: TRACE;

SPARTA         CLOUDY    38  37  97 E6        29.75F WCI  34
6HR MIN TEMP:  35; 6HR MAX TEMP:  43; 6HR PCP:  0.03;

VIROQUA        CLOUDY    38  38 100 SE6       29.75R WCI  33
6HR MIN TEMP:  37; 6HR MAX TEMP:  40; 6HR PCP:  0.01;

BOSCOBEL       CLOUDY    41  39  93 E3        29.75F FOG
6HR MIN TEMP:  38; 6HR MAX TEMP:  43; 6HR PCP:  0.17;

PRAIRIE DU CHI   N/A     35  34  96 CALM      29.74R FOG
6HR MIN TEMP:  35; 6HR MAX TEMP:  41; 6HR PCP:  0.09;

PLATTEVILLE    MOCLDY    39  39 100 E8        29.74S VSB 1   WCI  34
6HR MIN TEMP:  38; 6HR MAX TEMP:  42;

$$

WIZ056-057-062-063-064-067-068-281300-
SOUTH CENTRAL WISCONSIN

CITY           SKY/WX    TMP DP  RH WIND       PRES   REMARKS
REEDSBURG      CLOUDY    38  38 100 E3        29.76F FOG
6HR MIN TEMP:  34; 6HR MAX TEMP:  38; 6HR PCP:  0.15;

BARABOO/DELLS  CLOUDY    38  38  97 E5        29.76F FOG     WCI  35
6HR MIN TEMP:  36; 6HR MAX TEMP:  39; 6HR PCP:  0.08;

LONE ROCK      CLOUDY    43  40  89 E6        29.76F FOG
6HR MIN TEMP:  40; 6HR MAX TEMP:  43; 6HR PCP:  0.15;

MINERAL POINT  CLOUDY    46  46 100 SE7       29.75S FOG
MADISON        CLOUDY    43  41  93 SE6       29.77F
6HR MIN TEMP:  41; 6HR MAX TEMP:  43; 6HR PCP:  0.02;

MIDDLETON      CLOUDY    43  43 100 CALM      29.78F
6HR MIN TEMP:  41; 6HR MAX TEMP:  44; 6HR PCP:  0.01;

WATERTOWN      CLOUDY    42  42 100 E8        29.80F FOG
6HR MIN TEMP:  39; 6HR MAX TEMP:  42; 6HR PCP:  0.05;

MONROE         CLOUDY    45  45 100 SE9       29.75F FOG
JANESVILLE     CLOUDY    46  46 100 SE7       29.77F
$$

WIZ051-052-058>065-066-070>072-281300-
SOUTHEAST WISCONSIN

CITY           SKY/WX    TMP DP  RH WIND       PRES   REMARKS
MILWAUKEE      CLOUDY    42  40  92 SE10      29.83F FOG
6HR MIN TEMP:  41; 6HR MAX TEMP:  44; 6HR PCP:  0.20;

WAUKESHA       CLOUDY    39  39 100 SE7       29.83F FOG     WCI  34
MILWAUKEE/TIMM CLOUDY    41  37  87 SE5       29.84F FOG
RACINE         CLOUDY    41  39  93 SE7       29.85F FOG
6HR MIN TEMP:  41; 6HR MAX TEMP:  43; 6HR PCP:  0.39;

KENOSHA        CLOUDY    41  40  96 E7        29.83F FOG
6HR MIN TEMP:  41; 6HR MAX TEMP:  44; 6HR PCP:  0.30;

FOND DU LAC    LGT RAIN  40  37  89 SE9       29.80F FOG     WCI  34
6HR MIN TEMP:  37; 6HR MAX TEMP:  41; 6HR PCP:  0.17;

SHEBOYGAN      LGT RAIN  40  39  97 SE7       29.84F FOG
6HR MIN TEMP:  34; 6HR MAX TEMP:  40; 6HR PCP:  0.09;

WEST BEND      CLOUDY    41  41 100 SE6       29.83F FOG
JUNEAU         CLOUDY    40  39  98 E7        29.82F FOG     WCI  35
6HR MIN TEMP:  38; 6HR MAX TEMP:  40; 6HR PCP:  0.02;

$$

LSZ147-162-281300-
LAKE SUPERIOR

STATION/POSITION TIME  TEMP    WIND        PRES    WAVE
                       AIR SEA DIR/SP/G            HT/PER
                 (UTC) (F)     (DEG/KT/KT) (MB)    (FT/S)
DEVILS ISLAND    1200   33      40/ 13/ 15 1011.1F
PORT WING        1140   32      50/ 10/ 13 1010.2F
SAXON HARBOR     1140   32     300/  3/  4 1010.2R
$$

LMZ867-665-643>646-281300-
LAKE MICHIGAN

STATION/POSITION TIME  TEMP    WIND        PRES    WAVE
                       AIR SEA DIR/SP/G            HT/PER
                 (UTC) (F)     (DEG/KT/KT) (MB)    (FT/S)
CHAMBERS ISLAND  1140   39     160/  6/ 12 1011.5S
NORTHPORT PIER   1140   38     150/  8/ 11 1011.9F
SISTER BAY



USA.gov is the U.S. government's official web portal to all federal, state and local government web resources and services.